Weather in Ústí nad Labem

Czech Republic     50°40′23″N   14°02′20″E
temp.,
°C
wind,
m/s
gust,
m/s
humid.,
%
clouds,
%
prec.,
mm/h
press.,
hPa
HPBL,
m
20 may, fri
fri2023:00+15s2280100 0.0 102029
02:00+15ssw2387100 0.1 102052
05:00+14wnw11885 0.0 102123
08:00+18nw257951 0.0 1022493
11:00+22wsw2463100 0.0 10211150
14:00+23ssw4563100 0.2 10191080
17:00+23w0276100 2.0 1016205
20:00+21s118460 2.5 101317
21 may, sat
sat2123:00+18sw2292100 3.8 101332
02:00+16wnw7148925 5.3 1014966
05:00+11wnw8147996 0.0 10181100
08:00+11w6137210 0.0 1020962
11:00+16wnw71156100 0.0 10201668
14:00+18wnw71248100 0.1 10192228
17:00+17nw7125088 0.0 10181825
20:00+13nw5116910 0.0 1019940
22 may, sun
sun2223:00+10wnw2784100 0.0 1020192
02:00+9w248880 0.0 1019103
05:00+8w229468 0.0 101930
08:00+12nw367635 0.0 1018814
11:00+15nw46515 0.0 10171329
14:00+17nnw5542100 0.0 10161617
17:00+17nnw454499 0.0 10151366
20:00+13nnw2264100 0.0 101520
23 may, mon
mon2323:00+9nw116762 0.0 101511
02:00+8ese01725 0.0 101510
05:00+7s2180100 0.0 101413
08:00+12se2365100 0.0 1012278
11:00+16se4655100 0.0 1010753
14:00+19sse575094 0.0 10081174
17:00+17s4864100 0.0 1005542
20:00+16sse3972100 0.0 1005379
24 may, tue
tue2423:00+13s3694100 0.1 1005165
02:00+12ssw239837 0.1 100660
05:00+12sw2296100 0.0 100722
08:00+16sw238581 0.0 1008392
11:00+19sw3570100 0.7 10081158
14:00+17wsw3676100 1.7 1009345
17:00+16wsw2571100 0.3 1010192
20:00+15sw2273100 0.3 101138